CAPE
0 0 6 11 17 22 25 52 45 15 4 0 3 0 0 0 0 0 0 0 0 0 0 0 0 0 0 0 0 0 0 0 0 0 0 0 0 0 0 0 0 0 0 0 0 0 0 0 0 0 0 0 0 0
6 3 0 0 5 13 27 40 42 17 6 0 1 4 0 0 0 0 0 0 0 0 0 0 0 0 0 0 0 0 0 0 0 0 0 0 0 0 0 0 0 0 0 0 0 0 0 0 0 0 0 0 0 0
3 5 8 1 2 6 15 27 36 29 6 0 0 7 4 0 0 0 0 0 0 0 0 0 0 0 0 0 0 0 0 0 0 0 0 0 0 0 0 0 0 0 0 0 0 0 0 0 0 0 0 0 0 0
5 5 5 7 2 0 2 13 29 33 14 2 0 7 5 0 0 0 0 0 0 0 0 0 0 0 0 0 0 0 0 0 0 0 0 0 0 0 0 0 0 0 0 0 0 0 0 0 0 0 0 0 0 0
6 5 6 4 3 0 0 0 13 31 20 5 0 4 6 0 0 0 0 0 0 0 0 0 0 0 0 0 0 0 0 0 0 0 0 0 0 0 0 0 0 0 0 0 0 0 0 0 0 0 0 0 0 0
6 6 7 7 4 1 0 0 7 22 9 1 0 2 0 0 0 0 0 0 0 0 0 0 0 0 0 0 0 0 0 0 0 0 0 0 0 0 0 0 0 0 0 0 0 0 0 0 0 0 0 0 0 0
3 4 5 6 5 3 0 0 4 20 14 0 0 4 0 0 0 0 0 0 0 0 0 0 0 0 0 0 0 0 0 0 0 0 0 0 0 0 0 0 0 0 0 0 0 0 0 0 0 0 0 0 0 0
4 2 4 5 4 3 7 0 2 17 16 0 0 5 0 0 0 0 0 0 0 0 0 0 0 0 0 0 0 0 0 0 0 0 0 0 0 0 0 0 0 0 0 0 0 0 0 0 0 0 0 0 0 0
2 2 4 4 2 4 0 1 1 12 11 0 1 0 0 0 0 0 0 0 0 0 0 0 0 0 0 0 0 0 0 0 0 0 0 0 0 0 0 0 0 0 0 0 0 0 0 0 0 0 0 0 0 0
3 5 4 3 4 5 4 4 1 3 5 2 0 0 1 0 0 0 0 0 0 0 0 0 0 0 0 0 0 0 0 0 0 0 0 0 0 0 0 0 0 0 0 0 0 0 0 0 0 0 0 0 0 0
7 6 6 4 7 14 6 1 2 1 2 0 0 0 1 0 0 0 0 0 0 1 0 0 0 0 0 0 0 0 0 0 0 0 0 0 0 0 0 0 0 0 0 0 0 0 0 0 0 0 0 0 0 0
18 13 7 6 4 9 6 0 1 0 0 0 0 0 0 1 1 0 1 0 0 0 0 0 0 0 0 0 0 0 0 0 0 0 0 0 0 0 0 0 0 0 0 0 0 0 0 0 0 0 0 0 0 0
29 18 11 8 4 7 7 0 1 2 0 0 0 0 0 0 1 0 0 0 0 0 0 0 1 0 0 0 0 0 1 0 0 0 0 0 0 0 0 0 0 0 0 0 0 0 0 0 0 0 0 0 0 0
34 25 24 8 7 6 11 1 4 0 0 0 0 0 0 0 0 0 0 0 0 0 0 0 0 0 0 0 0 2 0 0 0 0 0 0 0 0 0 0 0 0 0 0 0 0 0 0 0 0 0 0 0 0
25 23 16 11 15 15 7 1 7 0 0 0 0 0 0 0 0 0 0 0 0 0 0 0 0 0 0 0 0 0 0 0 0 0 0 0 0 0 0 0 0 0 0 0 0 0 0 0 0 0 0 0 0 0
11 9 2 7 7 14 8 15 1 0 0 0 1 0 0 0 0 0 0 0 0 0 0 0 0 0 0 0 0 0 0 0 0 0 0 0 0 0 0 0 0 0 0 0 0 0 0 0 0 0 0 0 0 0
18 11 6 9 8 7 10 0 0 0 0 0 1 0 0 0 0 0 0 0 0 0 1 0 0 0 0 0 0 0 0 0 0 0 0 0 0 0 0 0 0 0 0 0 0 0 0 0 0 0 0 0 0 0
13 1 1 2 9 16 0 0 0 0 0 1 1 0 0 0 0 0 0 0 0 0 0 0 0 0 0 0 0 0 0 0 0 0 0 0 0 0 0 0 0 0 0 0 0 0 0 0 0 0 0 0 0 0
2 6 0 31 1 0 0 0 0 0 3 1 0 0 0 0 0 0 0 0 0 0 0 0 0 0 0 0 0 0 0 0 0 0 0 0 0 0 0 0 0 0 0 0 0 0 0 0 0 0 0 0 0 0
15 9 0 0 0 0 0 0 0 0 0 0 0 0 0 0 0 0 0 0 0 0 0 0 0 0 0 0 0 0 0 0 0 0 0 0 0 0 0 0 0 0 0 0 0 0 0 0 0 0 0 0 0 0
2 3 5 1 0 0 1 2 0 1 1 0 0 0 0 0 0 0 0 0 0 0 0 0 0 0 0 0 0 0 0 0 0 0 0 0 0 0 0 0 0 0 0 0 0 0 0 0 0 0 0 0 0 0
1 6 0 0 0 1 0 0 0 1 0 0 0 0 0 0 0 0 0 0 0 0 0 0 0 0 0 0 0 0 0 0 0 0 0 0 0 0 0 0 0 0 0 0 0 0 0 0 0 0 0 0 0 0
0 1 0 0 0 0 0 1 0 0 0 0 0 0 0 0 0 0 0 0 0 0 0 0 0 0 0 0 0 0 0 0 0 0 0 0 0 0 0 0 0 0 0 0 0 0 0 0 0 0 0 0 0 0
0 0 0 0 0 0 0 0 0 0 0 0 0 0 0 0 0 0 0 0 0 0 0 0 0 0 0 0 0 0 0 0 0 0 0 0 0 0 0 0 0 0 0 0 0 0 0 0 0 0 0 0 0 0
0 0 0 0 0 0 0 0 0 0 0 0 0 0 0 0 0 0 0 0 0 0 0 0 0 0 0 0 0 0 0 0 0 0 0 0 0 0 0 0 0 0 0 0 0 0 0 0 0 0 0 0 0 0
0 1 0 0 0 0 0 0 0 0 0 0 0 0 0 0 0 0 0 0 0 0 0 0 0 0 0 0 0 0 0 0 0 0 0 0 0 0 0 0 0 0 0 0 0 0 0 0 0 0 0 0 0 0
0 0 0 0 0 0 0 0 0 0 0 0 0 0 0 0 0 0 0 0 0 0 0 0 0 0 0 0 0 0 0 0 0 0 0 0 0 0 0 0 0 0 0 0 0 0 0 0 0 0 0 0 0 0
0 0 0 0 0 0 0 0 0 0 0 0 0 0 0 0 0 0 0 0 0 0 0 0 0 0 0 0 0 0 0 0 0 0 0 0 0 0 0 0 0 0 0 0 0 0 0 0 0 0 0 0 0 0
0 0 0 0 0 0 0 0 0 0 0 0 0 0 0 0 0 0 0 0 0 0 0 0 0 0 0 0 0 0 0 0 0 0 0 0 0 0 0 0 0 0 0 0 0 0 0 0 0 0 0 2 1 2
0 0 0 0 0 0 0 0 0 0 0 0 0 0 0 0 0 0 0 0 0 0 0 0 0 0 0 0 0 0 0 0 0 0 0 0 0 0 0 0 0 0 0 0 0 0 0 0 0 0 0 0 0 0
0 0 0 0 0 0 0 0 0 0 0 0 0 0 0 0 0 0 0 0 0 0 0 0 0 0 0 0 0 0 0 0 0 0 0 0 0 0 0 0 0 0 0 0 0 0 0 0 0 0 0 1 0 0
0 0 0 0 0 0 0 0 0 0 0 0 0 0 0 0 0 0 0 0 0 0 0 0 0 0 0 0 0 0 0 0 0 0 0 0 0 0 0 0 0 0 0 0 0 0 0 0 0 0 0 0 1 0
0 0 0 0 0 0 0 0 0 0 0 0 0 0 0 0 0 0 0 0 0 0 0 0 0 0 0 0 0 0 0 0 0 0 0 0 0 1 2 3 4 0 0 0 0 0 0 0 0 0 0 1 1 0
CIN
-0 -0 -1 -6 -13 -15 -12 -5 -5 -11 -17 -16 -5 -0 -0 -0 -0 -0 -0 -0 -0 -0 -0 -0 -0 -0 -0 -0 -0 -0 -0 -0 -0 -0 -0 -0 -0 -0 -0 -0 -0 -0 -0 -0 -0 -0 -0 -0 -0 -0 -0 -0 -0 -0
-0 -0 -0 -0 -5 -13 -18 -9 -10 -12 -20 -2 -4 -6 -0 -0 -0 -0 -0 -0 -0 -0 -0 -0 -0 -0 -0 -0 -0 -0 -0 -0 -0 -0 -0 -0 -0 -0 -0 -0 -0 -0 -0 -0 -0 -0 -0 -0 -0 -0 -0 -0 -0 -0
-0 -0 -0 -0 -4 -8 -10 -14 -14 -16 -26 -0 -0 -5 -4 -0 -0 -0 -0 -0 -0 -0 -0 -0 -0 -0 -0 -0 -0 -0 -0 -0 -0 -0 -0 -0 -0 -0 -0 -0 -0 -0 -0 -0 -0 -0 -0 -0 -0 -0 -0 -0 -0 -0
-0 -0 -0 -0 -1 -2 -3 -11 -10 -18 -26 -22 -0 -5 -4 -0 -0 -0 -0 -0 -0 -0 -0 -0 -0 -0 -0 -0 -0 -0 -0 -0 -0 -0 -0 -0 -0 -0 -0 -0 -0 -0 -0 -0 -0 -0 -0 -0 -0 -0 -0 -0 -0 -0
-0 -0 -0 -0 -0 -1 -0 -0 -8 -15 -24 -24 -2 -4 -3 -0 -0 -0 -0 -0 -0 -0 -0 -0 -0 -0 -0 -0 -0 -0 -0 -0 -0 -0 -0 -0 -0 -0 -0 -0 -0 -0 -0 -0 -0 -0 -0 -0 -0 -0 -0 -0 -0 -0
-0 -0 -0 -0 -0 -0 -0 -0 -7 -21 -23 -36 -0 -5 -13 -0 -0 -0 -0 -0 -0 -0 -0 -0 -0 -0 -0 -0 -0 -0 -0 -0 -0 -0 -0 -0 -0 -0 -0 -0 -0 -0 -0 -0 -0 -0 -0 -0 -0 -0 -0 -0 -0 -0
-0 -0 -0 -0 -0 -0 -0 -0 -1 -8 -23 -10 -8 -4 -0 -0 -0 -0 -0 -0 -0 -0 -0 -0 -0 -0 -0 -0 -0 -0 -0 -0 -0 -0 -0 -0 -0 -0 -0 -0 -0 -0 -0 -0 -0 -0 -0 -0 -0 -0 -0 -0 -0 -0
-0 -0 -0 -0 -0 -0 -0 -0 -1 -1 -10 -29 -0 -2 -0 -0 -0 -0 -0 -0 -0 -0 -0 -0 -0 -0 -0 -0 -0 -0 -0 -0 -0 -0 -0 -0 -0 -0 -0 -0 -0 -0 -0 -0 -0 -0 -0 -0 -0 -0 -0 -0 -0 -0
-0 -0 -0 -0 -0 -0 -0 -0 -0 -0 -6 -2 -0 -0 -0 -0 -0 -0 -0 -0 -0 -0 -0 -0 -0 -0 -0 -0 -0 -0 -0 -0 -0 -0 -0 -0 -0 -0 -0 -0 -0 -0 -0 -0 -0 -0 -0 -0 -0 -0 -0 -0 -0 -0
-0 -0 -0 -0 -0 -0 -0 -0 -0 -0 -5 -0 -0 -0 -1 -0 -0 -0 -0 -0 -0 -0 -0 -0 -0 -0 -0 -0 -0 -0 -0 -0 -0 -0 -0 -0 -0 -0 -0 -0 -0 -0 -0 -0 -0 -0 -0 -0 -0 -0 -0 -0 -0 -0
-0 -0 -0 -0 -0 -0 -0 -0 -0 -0 -0 -0 -0 -0 -0 -0 -0 -0 -0 -0 -0 -0 -0 -0 -0 -0 -0 -0 -0 -0 -0 -0 -0 -0 -0 -0 -0 -0 -0 -0 -0 -0 -0 -0 -0 -0 -0 -0 -0 -0 -0 -0 -0 -0
-0 -0 -0 -0 -0 -0 -0 -0 -0 -0 -0 -0 -0 -0 -0 -0 -0 -0 -0 -0 -0 -0 -0 -0 -0 -0 -0 -0 -0 -0 -0 -0 -0 -0 -0 -0 -0 -0 -0 -0 -0 -0 -0 -0 -0 -0 -0 -0 -0 -0 -0 -0 -0 -0
-0 -0 -0 -0 -0 -0 -0 -0 -0 -0 -0 -0 -0 -0 -0 -0 -0 -0 -0 -0 -0 -0 -0 -0 -0 -0 -0 -0 -0 -0 -0 -0 -0 -0 -0 -0 -0 -0 -0 -0 -0 -0 -0 -0 -0 -0 -0 -0 -0 -0 -0 -0 -0 -0
-0 -0 -0 -0 -0 -0 -0 -0 -0 -0 -0 -0 -0 -0 -0 -0 -0 -0 -0 -0 -0 -0 -0 -0 -0 -0 -0 -0 -0 -0 -0 -0 -0 -0 -0 -0 -0 -0 -0 -0 -0 -0 -0 -0 -0 -0 -0 -0 -0 -0 -0 -0 -0 -0
-0 -0 -0 -0 -0 -0 -0 -0 -0 -0 -0 -0 -0 -0 -0 -0 -0 -0 -0 -0 -0 -0 -0 -0 -0 -0 -0 -0 -0 -0 -0 -0 -0 -0 -0 -0 -0 -0 -0 -0 -0 -0 -0 -0 -0 -0 -0 -0 -0 -0 -0 -0 -0 -0
-0 -0 -0 -0 -0 -0 -0 -0 -0 -0 -0 -0 -0 -0 -0 -0 -0 -0 -0 -0 -0 -0 -0 -0 -0 -0 -0 -0 -0 -0 -0 -0 -0 -0 -0 -0 -0 -0 -0 -0 -0 -0 -0 -0 -0 -0 -0 -0 -0 -0 -0 -0 -0 -0
-0 -0 -0 -0 -0 -0 -0 -0 -0 -0 -0 -0 -0 -0 -0 -0 -0 -0 -0 -0 -0 -0 -0 -0 -0 -0 -0 -0 -0 -0 -0 -0 -0 -0 -0 -0 -0 -0 -0 -0 -0 -0 -0 -0 -0 -0 -0 -0 -0 -0 -0 -0 -0 -0
-0 -1 -4 -0 -0 -0 -0 -0 -0 -0 -0 -0 -0 -0 -0 -0 -0 -0 -0 -0 -0 -0 -0 -0 -0 -0 -0 -0 -0 -0 -0 -0 -0 -0 -0 -0 -0 -0 -0 -0 -0 -0 -0 -0 -0 -0 -0 -0 -0 -0 -0 -0 -0 -0
-0 -9 -0 -0 -4 -0 -0 -0 -0 -0 -0 -0 -0 -0 -0 -0 -0 -0 -0 -0 -0 -0 -0 -0 -0 -0 -0 -0 -0 -0 -0 -0 -0 -0 -0 -0 -0 -0 -0 -0 -0 -0 -0 -0 -0 -0 -0 -0 -0 -0 -0 -0 -0 -0
-0 -6 -0 -0 -0 -0 -0 -0 -0 -0 -0 -0 -0 -0 -0 -0 -0 -0 -0 -0 -0 -0 -0 -0 -0 -0 -0 -0 -0 -0 -0 -0 -0 -0 -0 -0 -0 -0 -0 -0 -0 -0 -0 -0 -0 -0 -0 -0 -0 -0 -0 -0 -0 -0
-0 -0 -0 -0 -0 -0 -0 -0 -0 -0 -0 -0 -0 -0 -0 -0 -0 -0 -0 -0 -0 -0 -0 -0 -0 -0 -0 -0 -0 -0 -0 -0 -0 -0 -0 -0 -0 -0 -0 -0 -0 -0 -0 -0 -0 -0 -0 -0 -0 -0 -0 -0 -0 -0
-0 -0 -0 -0 -0 -0 -0 -0 -0 -0 -0 -0 -0 -0 -0 -0 -0 -0 -0 -0 -0 -0 -0 -0 -0 -0 -0 -0 -0 -0 -0 -0 -0 -0 -0 -0 -0 -0 -0 -0 -0 -0 -0 -0 -0 -0 -0 -0 -0 -0 -0 -0 -0 -0
-0 -0 -0 -0 -0 -0 -0 -0 -0 -0 -0 -0 -0 -0 -0 -0 -0 -0 -0 -0 -0 -0 -0 -0 -0 -0 -0 -0 -0 -0 -0 -0 -0 -0 -0 -0 -0 -0 -0 -0 -0 -0 -0 -0 -0 -0 -0 -0 -0 -0 -0 -0 -0 -0
-0 -0 -0 -0 -0 -0 -0 -0 -0 -0 -0 -0 -0 -0 -0 -0 -0 -0 -0 -0 -0 -0 -0 -0 -0 -0 -0 -0 -0 -0 -0 -0 -0 -0 -0 -0 -0 -0 -0 -0 -0 -0 -0 -0 -0 -0 -0 -0 -0 -0 -0 -0 -0 -0
-0 -0 -0 -0 -0 -0 -0 -0 -0 -0 -0 -0 -0 -0 -0 -0 -0 -0 -0 -0 -0 -0 -0 -0 -0 -0 -0 -0 -0 -0 -0 -0 -0 -0 -0 -0 -0 -0 -0 -0 -0 -0 -0 -0 -0 -0 -0 -0 -0 -0 -0 -0 -0 -0
-0 -0 -0 -0 -0 -0 -0 -0 -0 -0 -0 -0 -0 -0 -0 -0 -0 -0 -0 -0 -0 -0 -0 -0 -0 -0 -0 -0 -0 -0 -0 -0 -0 -0 -0 -0 -0 -0 -0 -0 -0 -0 -0 -0 -0 -0 -0 -0 -0 -0 -0 -0 -0 -0
-0 -0 -0 -0 -0 -0 -0 -0 -0 -0 -0 -0 -0 -0 -0 -0 -0 -0 -0 -0 -0 -0 -0 -0 -0 -0 -0 -0 -0 -0 -0 -0 -0 -0 -0 -0 -0 -0 -0 -0 -0 -0 -0 -0 -0 -0 -0 -0 -0 -0 -0 -0 -0 -0
-0 -0 -0 -0 -0 -0 -0 -0 -0 -0 -0 -0 -0 -0 -0 -0 -0 -0 -0 -0 -0 -0 -0 -0 -0 -0 -0 -0 -0 -0 -0 -0 -0 -0 -0 -0 -0 -0 -0 -0 -0 -0 -0 -0 -0 -0 -0 -0 -0 -0 -0 -0 -0 -0
-0 -0 -0 -0 -0 -0 -0 -0 -0 -0 -0 -0 -0 -0 -0 -0 -0 -0 -0 -0 -0 -0 -0 -0 -0 -0 -0 -0 -0 -0 -0 -0 -0 -0 -0 -0 -0 -0 -0 -0 -0 -0 -0 -0 -0 -0 -0 -0 -0 -0 -0 -0 -0 -0
-0 -0 -0 -0 -0 -0 -0 -0 -0 -0 -0 -0 -0 -0 -0 -0 -0 -0 -0 -0 -0 -0 -0 -0 -0 -0 -0 -0 -0 -0 -0 -0 -0 -0 -0 -0 -0 -0 -0 -0 -0 -0 -0 -0 -0 -0 -0 -0 -0 -0 -0 -0 -0 -0
-0 -0 -0 -0 -0 -0 -0 -0 -0 -0 -0 -0 -0 -0 -0 -0 -0 -0 -0 -0 -0 -0 -0 -0 -0 -0 -0 -0 -0 -0 -0 -0 -0 -0 -0 -0 -0 -0 -0 -0 -0 -0 -0 -0 -0 -0 -0 -0 -0 -0 -0 -0 -0 -0
-0 -0 -0 -0 -0 -0 -0 -0 -0 -0 -0 -0 -0 -0 -0 -0 -0 -0 -0 -0 -0 -0 -0 -0 -0 -0 -0 -0 -0 -0 -0 -0 -0 -0 -0 -0 -0 -0 -0 -0 -0 -0 -0 -0 -0 -0 -0 -0 -0 -0 -0 -0 -0 -0
-0 -0 -0 -0 -0 -0 -0 -0 -0 -0 -0 -0 -0 -0 -0 -0 -0 -0 -0 -0 -0 -0 -0 -0 -0 -0 -0 -0 -0 -0 -0 -0 -0 -0 -0 -0 -0 -0 -3 -1 -0 -0 -0 -0 -0 -0 -0 -0 -0 -0 -0 -0 -0 -0
Wind_Speed
19 18 16 15 14 12 11 11 11 9 8 4 2 3 4 7 10 4 1 2 2 3 2 4 4 1 1 2 1 3 4 2 2 1 1 1 1 3 1 3 6 7 6 5 4 4 9 7 4 6 5 4 5 4
13 19 18 17 16 14 13 12 12 10 9 6 5 3 2 4 7 4 1 1 1 2 1 3 3 3 3 2 1 1 1 2 1 2 0 1 2 2 3 2 4 3 4 4 8 5 2 4 6 6 5 4 3 2
14 16 18 18 17 16 14 13 14 12 10 8 6 5 3 1 4 4 2 2 2 2 2 2 1 2 1 4 3 2 1 2 2 1 1 1 2 3 2 4 4 4 3 2 3 3 7 6 6 5 3 4 3 2
12 15 18 18 18 17 15 14 14 13 12 10 8 8 6 2 2 2 1 1 2 3 2 2 1 3 3 3 3 3 2 1 2 0 1 1 2 2 2 2 2 4 4 4 4 4 5 4 6 6 5 4 4 3
12 13 16 18 18 18 16 15 15 14 13 12 9 8 9 6 2 2 2 2 2 1 2 1 1 2 1 3 1 1 2 1 1 0 0 3 1 1 1 2 5 7 7 6 6 4 4 5 7 5 5 4 3 3
14 14 15 16 17 18 18 16 16 15 14 13 10 8 12 9 4 1 2 1 1 1 1 2 1 2 3 2 1 2 1 1 0 2 3 1 2 0 2 5 5 6 4 3 5 6 8 9 8 4 6 4 3 2
14 15 16 15 16 16 18 16 15 16 16 14 11 9 13 10 2 1 0 2 0 1 1 2 0 2 3 2 1 0 1 0 0 2 1 1 2 1 3 4 2 6 6 5 7 8 5 5 6 6 6 4 1 3
16 16 16 16 16 16 17 19 17 17 17 16 13 13 13 10 7 1 2 2 1 1 1 1 2 1 1 1 1 1 1 0 1 1 0 2 1 1 6 6 3 5 8 7 5 5 5 8 7 5 3 2 0 0
18 18 18 18 18 18 18 20 20 18 17 16 19 19 4 1 2 2 6 2 0 1 2 3 3 2 2 2 2 1 1 1 1 2 2 2 3 8 6 5 6 6 6 8 7 6 7 8 7 5 3 4 4 5
20 20 20 19 19 18 17 17 22 20 20 24 4 4 3 2 11 8 2 2 0 2 1 3 2 2 3 3 1 3 0 2 1 2 3 2 6 6 4 1 3 8 8 9 9 5 5 4 3 2 2 2 3 5
22 21 21 20 20 19 19 18 24 25 23 3 4 2 2 6 1 1 2 3 3 3 5 3 4 4 2 3 3 2 2 1 2 2 3 3 5 1 4 5 6 8 8 6 7 7 6 5 1 2 4 4 5 6
22 23 23 23 22 21 19 18 26 17 4 9 9 6 3 3 2 4 5 2 5 7 4 5 4 2 2 1 3 1 2 0 5 3 2 4 4 1 1 6 6 8 8 8 6 6 3 2 3 4 6 7 6 7
23 24 26 25 23 22 21 18 28 28 21 5 4 5 4 4 7 10 11 5 5 5 5 5 4 4 2 1 3 3 3 4 2 3 4 5 2 4 6 6 7 7 7 6 3 1 3 5 6 4 7 7 7 7
24 24 27 28 24 24 23 20 26 25 7 4 7 8 8 7 9 7 6 6 3 7 10 6 4 4 2 3 3 3 2 1 3 4 6 3 5 6 5 5 6 5 4 1 3 5 6 6 8 8 8 8 9 11
27 28 30 32 32 27 28 24 34 11 5 6 6 9 10 3 2 2 5 5 2 8 7 5 4 3 2 4 3 3 3 4 5 5 2 2 6 7 5 4 4 2 2 4 5 5 7 8 7 8 8 8 10 11
33 33 29 36 35 31 32 23 13 4 3 6 5 5 3 6 5 3 5 8 4 7 3 3 4 4 3 3 5 6 4 6 4 3 2 5 6 4 3 3 5 5 6 6 6 7 7 7 8 8 7 8 12 13
32 19 29 37 33 32 30 8 3 4 6 7 4 1 4 5 7 7 7 6 7 6 4 4 7 5 3 4 5 5 5 3 3 2 2 6 5 4 5 5 6 6 6 7 7 7 7 8 6 6 13 15 13 12
15 12 24 29 29 24 5 3 4 5 5 3 6 7 2 4 10 8 4 9 6 3 4 3 5 4 5 6 4 4 3 2 1 4 5 4 4 5 4 6 6 6 7 6 7 7 5 7 9 10 13 13 10 11
13 12 33 41 25 10 5 2 1 4 3 3 5 6 4 4 4 7 8 5 4 4 6 3 3 4 4 3 3 2 3 3 4 4 3 5 7 7 7 7 5 6 6 7 7 8 9 11 9 9 10 10 9 11
30 20 33 30 14 6 5 3 1 4 4 3 3 5 5 4 4 7 7 3 3 4 3 4 4 4 4 4 3 4 4 4 4 2 4 5 5 6 6 6 5 7 6 7 8 15 8 7 8 9 9 10 9 11
10 11 16 7 5 6 5 4 3 3 4 4 4 3 4 2 4 3 3 1 2 2 3 4 3 2 4 3 4 4 5 5 5 6 5 4 4 4 4 4 5 5 6 8 9 9 11 9 10 9 8 11 10 10
5 13 4 7 6 6 5 4 4 3 4 4 3 3 4 3 3 2 2 2 3 4 4 4 3 4 4 4 4 6 6 6 6 4 7 7 4 2 4 6 3 7 8 9 7 9 11 10 9 10 10 10 13 11
5 5 5 6 6 5 3 1 5 4 5 4 2 4 3 3 3 3 2 1 3 3 3 3 3 4 4 2 3 3 6 6 4 5 5 6 5 5 6 6 7 8 10 9 6 9 10 15 13 12 11 11 11 11
4 5 5 5 6 4 3 4 3 3 4 3 4 4 3 3 0 2 3 3 3 2 4 5 3 2 0 2 3 6 5 6 5 4 6 5 5 8 7 8 8 8 8 7 6 8 9 10 14 10 10 12 12 12
7 6 5 6 2 4 4 3 3 4 4 2 5 4 2 1 3 1 4 4 3 3 3 4 4 5 5 3 3 5 6 6 5 7 8 6 8 6 7 8 9 9 3 5 9 9 9 9 8 9 11 12 14 15
8 9 6 4 3 4 3 4 4 4 3 4 5 2 1 3 3 5 5 4 4 4 4 6 6 3 4 6 6 5 5 6 5 6 9 6 6 7 9 10 10 14 5 6 7 7 10 10 10 14 14 17 22 19
5 4 3 2 3 4 5 4 3 3 4 4 4 4 3 4 6 6 3 3 3 4 3 4 5 5 5 5 4 6 5 4 7 7 6 7 4 5 6 9 15 16 6 6 6 7 11 12 13 14 14 14 13 13
3 2 4 0 4 3 5 3 3 4 4 3 5 4 9 10 7 4 5 4 4 2 3 3 4 5 6 7 5 3 4 3 4 3 4 8 7 7 9 10 12 23 13 11 9 8 9 10 12 14 17 16 14 12
3 1 4 4 3 2 3 5 5 3 5 5 6 4 5 5 4 3 3 3 2 3 1 3 6 4 6 4 3 4 4 3 1 10 11 10 9 7 5 8 9 8 8 9 15 15 12 10 13 12 16 14 10 9
2 2 3 2 4 4 4 4 3 2 2 4 2 2 3 3 4 3 2 2 3 5 7 8 9 4 6 3 7 8 4 5 7 9 8 10 9 5 3 5 6 8 7 7 8 8 14 12 12 10 11 10 9 9
2 2 3 2 3 2 1 3 2 2 2 1 1 3 4 4 5 4 6 5 7 6 3 7 5 4 5 6 5 7 8 5 9 12 12 9 9 9 9 9 8 8 8 9 9 8 9 9 9 11 12 14 13 13
1 1 3 1 4 4 3 2 1 1 1 1 3 2 3 3 4 5 4 4 2 3 10 7 4 9 7 7 5 6 12 4 4 5 8 6 8 10 10 9 9 9 9 10 10 8 7 10 11 11 12 15 15 11
3 3 2 0 2 2 2 4 4 4 3 2 4 4 4 5 8 6 4 4 6 6 7 7 7 4 4 6 6 5 7 5 7 12 16 19 20 18 13 9 8 10 12 9 5 7 11 12 10 12 15 15 14 10
Wind_Direction
212 220 225 220 219 222 216 215 223 211 222 201 251 308 0 8 10 6 82 19 21 320 75 0 5 296 201 286 187 135 99 290 117 295 275 237 318 197 342 138 173 169 153 195 185 213 274 143 90 174 168 93 93 76
247 216 221 220 225 223 215 207 214 210 210 206 228 204 322 10 13 13 306 134 337 246 348 1 48 33 7 8 26 155 320 145 159 198 223 44 290 108 265 269 18 246 195 192 179 221 65 129 96 85 73 118 124 146
335 342 224 222 218 222 225 213 209 203 202 211 212 198 213 358 30 31 20 354 277 260 198 186 132 123 48 14 318 149 63 44 73 69 48 100 243 87 219 240 175 246 123 226 21 156 168 147 95 94 108 121 117 93
327 326 338 230 218 217 223 220 212 200 196 206 213 196 187 169 61 37 49 63 268 278 282 128 170 94 342 338 348 347 29 43 87 166 170 207 219 70 286 243 216 192 117 209 246 141 88 135 130 138 134 132 109 79
314 317 322 326 229 214 216 220 211 202 194 196 209 201 166 153 137 87 82 71 45 106 303 30 82 70 352 296 181 199 257 259 212 111 176 233 141 124 210 25 239 181 191 169 222 156 122 127 128 121 123 103 69 26
301 304 302 315 321 225 213 216 207 196 193 193 198 193 154 152 158 261 166 37 22 28 89 301 88 55 18 125 150 117 72 275 264 175 220 241 53 33 252 234 248 171 84 60 156 84 94 120 118 115 122 112 80 29
297 294 293 297 305 305 217 205 201 195 191 184 184 175 151 152 126 242 23 128 150 298 103 321 248 80 346 343 30 57 311 217 151 209 224 304 177 164 253 245 223 140 135 108 110 109 86 156 154 128 116 98 105 231
292 293 289 287 288 291 269 204 195 194 192 175 160 147 140 121 104 198 139 146 174 102 69 182 255 188 155 177 124 336 147 325 296 289 24 197 89 213 251 235 132 132 124 123 108 54 118 121 106 101 122 169 31 32
284 285 286 283 288 290 298 216 191 187 179 156 132 121 114 166 193 140 129 121 329 160 205 152 197 228 181 95 102 71 354 191 22 256 223 116 217 225 233 242 166 163 165 147 121 103 99 105 119 108 66 21 352 320
278 278 277 277 274 272 276 255 186 170 155 134 118 138 173 151 117 127 71 140 109 221 254 214 109 163 163 159 167 107 191 235 219 214 98 224 261 269 287 253 301 140 131 133 120 113 106 107 105 57 8 289 268 280
273 276 275 274 270 267 274 286 179 154 142 142 136 99 79 134 109 129 174 212 157 228 193 211 171 143 216 140 164 170 184 196 254 224 206 219 261 301 352 95 89 102 106 99 104 104 101 112 126 295 301 282 276 277
270 271 269 267 267 263 272 284 180 153 149 129 109 107 125 113 216 169 193 162 208 214 160 162 167 117 154 177 122 172 167 69 242 148 233 245 250 15 320 116 100 101 106 100 104 119 139 191 249 262 271 276 270 269
266 267 267 263 259 252 260 264 193 130 113 88 89 140 171 153 197 195 182 205 207 162 162 161 137 135 113 306 78 125 181 223 119 214 237 232 184 120 115 104 94 94 94 99 85 27 325 295 294 274 283 274 269 270
266 270 264 256 257 252 247 252 180 133 103 142 159 177 204 181 224 193 171 155 165 132 140 135 112 128 127 127 125 178 144 147 231 234 236 221 159 132 115 127 118 120 112 137 259 272 280 272 270 271 261 267 272 272
269 265 261 251 244 244 233 239 180 133 120 164 173 196 196 180 41 91 97 91 107 142 132 113 84 112 131 123 195 116 166 236 220 229 216 170 139 130 136 129 128 164 253 258 251 241 248 253 253 263 267 264 262 269
272 267 250 244 243 234 211 204 176 82 111 152 200 160 150 118 154 117 134 134 155 144 94 73 121 150 165 167 166 198 191 219 233 177 179 118 127 131 157 204 227 242 254 262 260 257 259 262 262 263 267 265 269 270
269 246 251 240 220 188 185 146 106 130 157 155 176 233 167 113 162 161 151 154 160 143 135 147 158 168 113 180 203 182 204 200 160 158 145 158 171 196 216 235 248 259 262 256 257 259 256 265 275 280 274 271 271 266
248 216 191 173 161 156 41 74 138 154 153 139 153 159 144 110 140 141 112 142 144 132 136 145 121 174 183 178 203 208 172 148 119 155 176 208 228 249 235 248 257 248 256 256 253 258 257 261 261 262 269 272 271 264
249 172 159 158 136 100 104 107 121 113 90 104 100 98 92 80 74 105 120 97 83 100 113 118 152 180 200 204 162 144 145 158 172 204 206 224 229 240 248 248 246 251 254 255 262 261 256 253 260 268 269 272 268 271
17 75 125 131 104 86 101 95 208 105 129 130 97 97 94 96 103 122 118 107 103 113 140 180 199 191 181 187 169 156 162 163 152 188 251 241 229 226 236 228 237 246 251 258 255 261 273 272 258 254 258 260 261 266
355 20 38 46 67 71 85 108 76 67 89 83 106 85 92 107 107 112 108 96 95 160 196 208 205 148 172 127 138 137 159 164 187 186 213 251 239 229 251 241 235 238 243 255 263 274 276 265 272 274 269 276 279 274
352 6 46 34 59 72 73 13 103 97 75 96 74 64 96 90 105 79 121 119 198 212 190 178 177 170 181 187 198 196 195 192 212 230 252 260 256 246 251 245 238 253 256 258 260 267 270 270 276 279 278 280 283 280
32 26 46 29 72 75 72 333 66 30 96 101 103 83 69 66 32 326 50 217 254 231 196 190 190 188 198 213 174 199 190 190 211 229 245 244 241 234 237 234 233 241 261 265 236 254 263 272 279 279 279 279 277 280
80 59 49 45 45 71 54 48 54 67 70 71 83 91 65 92 128 42 242 230 223 170 191 207 134 137 214 219 229 231 189 189 211 232 234 224 233 250 246 249 254 247 237 251 239 259 266 271 273 278 276 276 277 278
67 24 75 55 40 83 78 70 62 76 86 70 96 104 114 157 107 189 243 259 204 216 200 153 169 192 207 236 264 255 163 170 196 227 250 204 239 264 262 260 261 258 221 253 266 262 264 269 271 270 271 270 273 276
62 16 38 31 28 69 52 75 53 80 91 72 62 95 158 105 95 234 236 223 208 196 176 184 184 172 226 216 244 260 234 191 192 221 253 231 215 229 252 263 277 280 208 221 240 252 265 273 273 273 277 281 281 283
69 60 52 27 92 106 91 60 51 92 101 134 151 154 113 121 221 248 270 237 207 225 182 160 163 184 219 242 235 238 243 180 186 208 245 265 228 201 211 252 262 263 271 203 220 234 259 272 275 276 278 277 275 274
93 56 115 318 66 28 104 80 135 165 150 141 114 165 171 189 224 231 206 237 204 153 166 197 198 199 220 236 233 233 265 223 251 273 289 273 250 248 242 246 254 264 263 259 251 247 247 257 268 275 278 275 275 271
67 81 80 39 42 60 167 164 198 210 140 152 157 183 227 219 222 211 249 207 141 93 34 287 272 214 250 258 247 232 221 172 161 276 277 280 295 279 228 237 245 249 248 245 251 248 250 258 270 282 294 287 278 273
128 194 107 139 143 210 242 162 210 172 142 172 200 328 314 282 238 196 149 123 149 207 216 220 249 172 235 204 266 272 213 198 203 218 245 257 254 258 228 237 239 242 237 235 250 259 271 287 288 288 288 282 273 271
36 50 53 86 220 269 350 338 26 79 76 191 236 171 250 293 298 227 207 205 220 229 215 246 253 204 211 237 221 252 276 248 219 223 232 253 266 274 278 277 272 268 257 250 249 256 268 279 284 286 289 292 277 269
54 160 135 167 295 301 8 70 133 169 268 127 266 154 335 24 283 283 246 148 114 227 243 233 218 259 218 230 219 218 224 244 236 237 247 252 266 268 271 274 274 271 263 257 256 256 266 274 279 276 283 288 288 265
44 48 27 307 331 312 298 74 27 334 352 285 260 210 204 184 233 259 294 202 192 207 227 224 227 238 219 214 222 239 240 223 238 266 282 286 288 290 292 291 284 262 256 251 249 263 264 263 270 282 284 280 278 271